Wind_Speed
29 28 29 29 29 29 29 29 28 26 24 22 22 21 20 20 20 19 19 18 17 18 18 17 17 16 15 15 15 14 14 14 14 13 13 13 13 13 13 13 13 12 12 12
29 28 29 29 29 30 30 29 28 25 24 23 22 22 21 22 21 20 20 19 19 19 19 19 18 17 16 16 15 15 15 14 14 14 14 13 13 13 14 14 15 14 13 13
30 28 29 30 29 30 30 28 28 26 24 23 22 21 21 22 22 21 19 19 19 19 18 19 18 17 16 16 16 15 15 15 15 16 16 15 15 15 15 16 16 16 15 15
31 30 31 28 28 28 28 28 27 26 24 24 23 22 23 22 23 22 21 21 21 20 19 19 19 19 18 17 17 16 16 16 16 16 16 16 17 17 17 17 17 17 17 16
31 30 31 30 28 28 28 27 26 25 24 25 24 24 23 23 23 23 22 21 21 21 21 20 20 19 19 19 18 18 17 17 17 17 17 18 18 18 18 18 18 17 17 16
31 30 31 29 28 28 28 27 26 26 25 25 25 25 23 23 23 23 22 22 22 22 22 22 20 20 20 20 19 18 18 18 17 17 17 18 19 18 18 18 17 17 17 17
31 30 30 28 28 27 27 26 25 25 25 24 25 24 24 24 24 22 22 23 23 23 23 21 21 21 21 21 20 20 19 19 18 18 18 18 19 19 18 18 18 18 18 18
29 29 29 28 27 27 26 25 25 25 25 25 24 24 25 25 25 23 23 23 23 23 22 22 22 22 22 22 22 21 21 20 20 19 19 19 19 19 19 19 19 19 19 19
28 29 28 28 28 27 26 26 26 26 27 26 25 26 27 27 26 25 24 23 23 23 23 23 23 23 23 23 22 22 22 22 21 19 19 19 19 18 19 19 19 20 20 20
26 27 27 26 25 25 26 25 25 25 25 25 24 25 25 26 26 24 23 23 24 24 24 24 24 23 23 23 23 22 22 22 22 20 19 19 19 19 19 19 20 21 21 21
23 23 23 23 23 24 24 23 24 24 23 23 24 24 25 24 24 24 24 24 25 25 25 24 24 23 23 22 22 23 22 21 21 21 20 20 20 20 20 20 20 21 21 22
21 21 20 21 22 23 23 23 23 23 23 23 23 23 23 24 24 24 23 24 24 24 24 23 23 22 22 23 22 22 22 21 21 21 21 21 20 20 21 21 21 21 21 21
20 20 19 19 20 20 21 21 22 22 21 21 21 21 22 22 22 22 23 22 22 23 23 23 23 22 22 22 23 23 22 22 22 22 22 22 22 21 21 21 21 21 22 22
19 19 19 18 19 20 21 21 21 22 21 21 21 21 21 22 23 22 22 22 22 22 22 22 22 22 23 23 22 22 22 22 22 22 22 22 22 21 21 21 21 21 21 21
18 19 18 18 19 19 19 20 20 21 20 21 20 21 21 22 22 22 22 22 22 22 22 22 22 22 22 22 22 22 22 22 22 22 22 22 22 22 22 22 22 21 21 22
16 16 16 16 16 17 16 18 19 19 20 20 21 22 22 22 22 21 21 22 22 21 21 21 21 21 22 22 22 22 22 22 22 23 23 22 22 22 22 22 22 22 22 23
14 14 14 15 16 16 16 16 17 18 19 20 21 21 21 21 21 21 21 20 21 21 22 21 21 22 21 22 22 22 22 22 22 22 22 22 22 22 22 23 23 23 23 23
12 12 13 14 14 15 15 16 16 17 18 18 19 19 19 20 20 20 20 20 21 21 22 22 22 22 22 22 21 21 22 22 22 22 22 23 23 23 23 23 23 23 23 22
11 11 11 13 14 15 15 15 16 16 16 16 17 17 18 18 18 18 19 20 21 21 22 22 22 22 22 21 21 21 21 22 22 23 23 23 24 24 24 24 24 23 23 22
10 10 11 12 13 14 14 14 15 15 15 15 15 16 16 17 18 18 18 19 20 21 21 21 21 21 21 21 21 20 21 21 21 21 22 23 23 24 24 24 24 24 23 23
10 11 12 12 12 13 13 13 13 13 14 14 15 16 16 17 18 18 18 19 19 19 20 18 18 18 18 18 19 19 20 21 21 22 22 22 23 23 23 24 24 23 23 23
11 11 12 12 13 13 12 13 13 14 14 14 14 15 16 16 16 17 17 18 18 17 16 16 16 17 18 18 19 19 20 20 21 21 22 22 22 23 23 23 23 23 23 23
12 12 11 12 12 13 13 14 14 15 14 15 14 13 13 14 14 15 15 16 16 15 14 15 16 17 18 19 19 19 20 20 21 21 22 22 22 22 22 22 22 23 24 24
12 12 12 12 12 12 13 14 15 15 15 15 14 14 14 13 13 14 14 15 16 16 16 16 16 17 18 18 19 19 20 21 21 22 22 22 22 22 22 22 23 24 24 24
12 13 13 12 12 12 13 13 14 14 14 14 14 13 13 13 13 13 13 14 14 15 16 17 17 18 18 19 19 20 20 21 21 22 22 22 22 22 22 22 23 23 23 24
12 13 13 13 13 13 13 13 13 13 13 13 13 13 13 13 13 14 14 15 15 15 16 16 17 18 18 18 19 19 19 20 20 20 21 21 22 22 22 22 23 23 23 24
13 13 13 13 13 13 14 14 14 14 14 13 13 14 14 14 14 14 14 15 15 16 16 16 17 17 18 18 18 18 18 18 19 19 21 21 22 22 22 22 23 23 24 25
Wind_Direction
235 234 235 237 238 239 241 244 248 248 246 246 249 252 255 257 260 261 264 267 267 268 269 273 275 276 278 275 271 270 266 265 264 264 266 266 263 259 257 261 263 267 272 273
236 234 235 237 239 240 242 245 248 250 247 244 247 252 256 257 257 259 263 265 266 268 269 270 270 273 275 273 271 270 267 264 264 266 266 265 260 259 255 258 264 266 269 272
236 235 237 238 239 240 243 246 249 249 247 245 248 250 252 255 256 257 261 263 265 268 270 271 270 270 272 271 270 269 267 265 263 264 265 262 261 260 260 261 263 263 267 270
237 235 237 237 240 242 244 246 247 248 246 246 248 248 252 256 258 259 261 262 264 266 271 274 272 269 269 269 269 270 268 265 263 264 262 261 261 262 262 264 263 262 264 269
236 236 238 239 241 241 244 247 247 247 246 245 247 248 251 255 258 260 261 261 262 265 269 271 270 268 267 267 268 268 267 267 264 262 261 263 264 264 264 265 266 265 265 268
236 237 239 240 241 242 245 247 245 245 245 246 248 249 252 254 256 260 261 262 263 264 266 266 265 265 266 267 268 268 268 270 270 267 264 264 265 266 266 265 265 265 264 266
235 237 240 241 241 242 245 245 242 242 242 246 249 251 253 254 256 260 263 263 263 264 265 263 264 265 267 267 266 266 268 270 269 269 268 266 266 264 263 263 263 264 264 265
232 235 239 240 239 240 244 244 243 242 245 247 249 252 253 255 256 259 264 263 262 261 262 262 262 263 265 266 265 264 265 265 266 268 269 268 266 262 260 261 261 263 264 265
231 234 237 238 238 241 244 246 245 245 246 247 251 253 254 255 256 258 261 262 261 261 262 261 261 261 262 265 265 263 262 263 263 264 266 266 265 263 259 259 261 262 263 266
230 233 236 239 240 242 242 243 245 246 246 247 250 252 253 252 254 256 257 258 259 261 260 260 260 259 261 263 263 262 262 261 261 261 263 264 265 265 262 262 264 264 264 265
232 234 233 236 240 242 244 246 247 246 246 248 250 252 252 250 252 253 255 256 257 258 257 257 259 260 261 261 260 259 260 260 260 261 263 265 268 268 265 265 267 266 267 268
234 234 236 239 241 242 244 245 246 247 248 248 250 252 253 252 251 252 255 257 257 258 257 255 257 260 261 260 261 261 261 261 261 264 265 265 268 270 270 269 270 269 269 270
236 237 237 239 242 244 245 246 246 248 248 247 249 252 254 253 253 255 256 256 256 255 256 255 257 260 261 261 262 262 260 260 261 263 265 264 265 270 270 269 270 270 270 271
234 237 238 241 243 244 244 245 247 250 251 248 249 253 257 258 259 257 255 255 254 254 256 258 261 263 263 262 262 261 260 260 261 262 264 265 267 269 270 271 270 269 269 271
233 237 240 245 245 244 244 245 249 250 254 253 253 255 257 260 260 259 256 253 256 258 259 261 263 264 263 262 262 262 261 260 260 260 262 265 267 270 270 269 270 271 271 272
236 239 243 245 245 245 247 248 249 251 253 253 255 255 256 257 259 259 257 255 256 258 261 265 264 264 263 261 259 259 260 258 258 259 262 263 266 268 268 266 268 270 271 272
241 244 243 243 244 246 248 250 250 250 251 252 254 255 256 257 258 259 256 254 255 259 261 264 265 265 265 261 258 257 257 257 258 260 261 264 266 267 266 266 267 268 270 272
242 246 247 246 246 248 249 252 256 254 255 254 252 253 254 254 256 256 254 255 258 260 262 264 264 264 264 262 259 258 257 258 259 261 262 264 266 266 267 267 266 266 268 268
236 241 244 244 244 247 248 253 255 255 256 254 253 252 254 256 257 256 256 257 258 260 261 261 262 262 261 261 260 260 258 260 262 263 262 263 265 267 267 267 266 265 266 265
239 239 241 243 244 245 248 252 255 256 255 254 256 256 256 258 258 256 257 260 261 261 261 261 262 263 261 260 260 259 260 261 263 264 263 263 265 266 266 266 267 267 265 265
245 244 243 244 243 245 248 249 250 253 255 259 260 260 260 260 258 258 258 259 261 261 262 264 262 261 260 261 261 261 262 263 263 264 264 264 264 266 267 266 266 265 265 265
254 250 248 247 245 247 248 248 250 253 258 261 262 261 260 259 259 262 263 261 263 263 262 262 261 260 260 262 264 265 264 264 265 264 264 265 266 268 269 268 266 265 265 266
251 249 247 249 250 250 249 250 252 255 259 260 260 260 263 264 264 264 264 263 264 265 264 263 262 261 262 264 265 266 265 266 266 265 264 266 268 269 268 267 268 267 268 267
244 245 247 250 252 252 254 255 255 258 263 264 265 264 266 268 266 264 263 263 265 266 266 266 264 263 264 264 266 267 266 267 267 265 265 267 268 268 268 268 269 268 267 267
246 247 248 250 252 256 258 261 261 263 268 269 266 264 267 269 270 269 268 267 269 268 270 270 270 269 269 268 269 270 269 269 268 267 266 267 267 266 267 268 269 269 268 268
250 251 252 255 257 260 263 264 266 265 266 269 269 270 272 272 274 275 274 274 273 271 273 272 273 273 273 271 271 270 269 269 268 267 266 265 265 266 268 269 269 269 269 268
254 255 254 256 259 262 264 265 267 267 266 268 270 273 274 275 275 275 276 276 277 277 277 278 278 277 275 272 270 269 269 270 270 269 269 269 269 270 272 272 271 270 269 270
Height
5759 5763 5765 5768 5772 5775 5778 5781 5784 5787 5790 5794 5796 5798 5800 5801 5802 5803 5803 5803 5804 5804 5804 5804 5804 5804 5804 5803 5803 5803 5803 5803 5803 5803 5803 5804 5804 5804 5804 5805 5806 5806 5806 5806
5752 5756 5759 5762 5766 5769 5772 5775 5778 5781 5785 5788 5790 5792 5793 5795 5796 5797 5798 5798 5798 5798 5799 5799 5799 5799 5799 5798 5798 5798 5798 5799 5799 5799 5799 5800 5800 5800 5801 5801 5802 5802 5802 5803
5745 5749 5752 5756 5760 5763 5766 5769 5772 5775 5780 5782 5784 5786 5787 5789 5790 5792 5793 5793 5793 5793 5794 5794 5794 5794 5794 5794 5794 5794 5794 5794 5795 5795 5795 5796 5796 5796 5796 5797 5797 5798 5798 5798
5739 5743 5746 5753 5755 5757 5760 5763 5766 5769 5773 5776 5778 5780 5781 5783 5784 5786 5787 5787 5788 5788 5788 5789 5789 5789 5789 5789 5789 5789 5789 5789 5790 5790 5790 5791 5791 5791 5792 5792 5793 5793 5793 5794
5732 5735 5739 5745 5748 5751 5754 5757 5760 5763 5766 5769 5771 5773 5775 5777 5778 5779 5781 5781 5782 5783 5783 5783 5783 5783 5784 5784 5784 5784 5784 5784 5785 5785 5785 5785 5786 5786 5787 5787 5788 5788 5789 5789
5725 5729 5733 5739 5743 5745 5749 5751 5755 5757 5760 5762 5764 5767 5770 5771 5772 5773 5774 5775 5776 5776 5776 5777 5777 5777 5778 5778 5779 5779 5779 5779 5779 5779 5780 5780 5781 5781 5782 5782 5783 5784 5784 5784
5719 5723 5727 5732 5736 5739 5743 5746 5749 5751 5753 5756 5758 5761 5763 5764 5766 5767 5768 5769 5769 5770 5770 5770 5771 5771 5771 5772 5773 5773 5773 5773 5774 5774 5774 5774 5775 5775 5776 5777 5778 5778 5779 5779
5713 5717 5724 5726 5729 5732 5735 5739 5742 5745 5747 5749 5752 5754 5755 5757 5759 5760 5761 5762 5762 5763 5764 5764 5764 5765 5765 5766 5766 5767 5767 5768 5768 5768 5768 5769 5769 5770 5771 5771 5772 5772 5773 5773
5709 5714 5717 5719 5723 5726 5729 5732 5735 5738 5740 5743 5745 5746 5748 5749 5751 5752 5754 5755 5755 5756 5757 5758 5758 5759 5759 5759 5760 5760 5761 5761 5762 5763 5763 5763 5764 5764 5765 5765 5766 5766 5767 5767
5703 5707 5711 5714 5717 5720 5723 5725 5728 5731 5733 5735 5737 5739 5740 5741 5743 5745 5746 5747 5748 5749 5750 5751 5751 5752 5753 5753 5753 5754 5755 5755 5756 5757 5757 5758 5758 5759 5759 5760 5760 5761 5761 5761
5698 5702 5706 5709 5712 5715 5717 5720 5722 5724 5726 5728 5729 5731 5732 5734 5735 5737 5738 5739 5740 5741 5742 5743 5744 5744 5745 5746 5747 5748 5749 5749 5750 5751 5752 5752 5753 5753 5754 5755 5755 5755 5755 5755
5695 5698 5701 5704 5707 5709 5712 5714 5716 5717 5719 5721 5722 5723 5724 5726 5727 5729 5730 5731 5732 5733 5734 5735 5737 5737 5738 5739 5740 5741 5742 5743 5744 5744 5745 5746 5747 5747 5747 5748 5748 5749 5749 5749
5691 5694 5697 5699 5701 5703 5705 5707 5709 5711 5712 5714 5715 5716 5717 5718 5720 5721 5722 5723 5725 5726 5727 5728 5729 5730 5731 5732 5733 5734 5736 5737 5737 5738 5739 5739 5740 5741 5741 5742 5742 5742 5742 5742
5687 5690 5692 5694 5696 5697 5699 5701 5702 5704 5705 5706 5708 5709 5710 5711 5712 5713 5715 5716 5717 5719 5720 5721 5722 5723 5724 5725 5726 5727 5728 5729 5730 5731 5732 5733 5734 5734 5735 5735 5736 5736 5736 5736
5683 5686 5687 5688 5690 5691 5693 5695 5696 5698 5699 5700 5701 5702 5703 5704 5705 5706 5707 5709 5710 5711 5713 5714 5715 5715 5716 5717 5718 5719 5721 5722 5723 5724 5725 5726 5727 5728 5728 5729 5729 5729 5729 5729
5680 5681 5683 5684 5685 5686 5688 5689 5691 5692 5693 5694 5695 5696 5697 5698 5699 5699 5701 5702 5703 5705 5706 5707 5708 5708 5709 5710 5711 5712 5713 5715 5716 5717 5718 5719 5720 5721 5721 5722 5722 5723 5722 5722
5676 5677 5678 5680 5681 5682 5683 5684 5685 5686 5687 5688 5689 5690 5691 5692 5692 5693 5694 5695 5697 5698 5699 5700 5701 5701 5702 5703 5703 5705 5706 5708 5709 5710 5711 5712 5713 5714 5714 5715 5715 5716 5716 5715
5672 5673 5675 5676 5677 5678 5679 5680 5680 5681 5682 5683 5683 5684 5685 5686 5686 5687 5688 5690 5691 5692 5693 5693 5693 5694 5694 5695 5696 5698 5699 5700 5702 5703 5704 5705 5706 5706 5707 5707 5707 5708 5708 5708
5669 5670 5671 5672 5673 5674 5675 5676 5676 5677 5677 5678 5678 5679 5680 5681 5681 5682 5683 5684 5685 5685 5686 5686 5686 5686 5687 5688 5689 5691 5692 5693 5694 5695 5696 5697 5698 5698 5699 5699 5700 5700 5700 5700
5666 5667 5668 5669 5669 5670 5671 5672 5672 5673 5673 5673 5674 5674 5675 5675 5676 5676 5677 5678 5678 5679 5679 5679 5679 5680 5681 5681 5682 5683 5685 5686 5687 5688 5689 5689 5690 5690 5691 5691 5692 5692 5692 5692
5663 5664 5664 5665 5666 5666 5667 5668 5668 5669 5669 5670 5670 5670 5670 5670 5671 5671 5671 5672 5672 5672 5672 5672 5673 5674 5674 5675 5676 5677 5678 5679 5680 5680 5681 5681 5682 5682 5682 5683 5683 5684 5684 5684
5660 5660 5661 5661 5662 5663 5663 5664 5664 5665 5666 5666 5666 5666 5665 5665 5666 5666 5666 5666 5666 5666 5666 5666 5667 5668 5669 5670 5670 5671 5671 5672 5672 5673 5673 5674 5674 5674 5674 5675 5675 5676 5676 5677
5656 5657 5657 5658 5658 5659 5659 5660 5660 5661 5661 5662 5661 5661 5661 5661 5661 5661 5661 5661 5661 5661 5662 5662 5662 5663 5663 5664 5664 5664 5665 5665 5665 5666 5666 5666 5666 5666 5666 5667 5667 5667 5668 5669
5652 5653 5654 5654 5655 5655 5655 5656 5657 5657 5657 5657 5657 5657 5658 5657 5657 5657 5657 5657 5657 5657 5657 5657 5657 5657 5658 5658 5658 5658 5658 5658 5658 5658 5658 5658 5658 5658 5658 5659 5659 5659 5660 5660
5649 5649 5650 5651 5651 5652 5652 5652 5652 5653 5653 5653 5653 5653 5653 5653 5653 5652 5652 5652 5652 5652 5652 5652 5652 5652 5652 5652 5652 5652 5652 5651 5651 5651 5651 5651 5651 5651 5651 5651 5651 5652 5652 5652
5645 5646 5646 5647 5647 5648 5648 5648 5648 5648 5648 5648 5648 5648 5649 5648 5648 5648 5648 5648 5648 5647 5647 5647 5647 5646 5646 5646 5646 5645 5645 5644 5644 5644 5644 5644 5643 5643 5644 5644 5644 5644 5644 5644
5641 5642 5642 5643 5643 5643 5644 5644 5644 5644 5644 5644 5645 5645 5644 5644 5644 5644 5644 5643 5643 5643 5642 5642 5641 5641 5640 5640 5639 5639 5638 5638 5638 5637 5637 5637 5637 5637 5637 5636 5636 5636 5636 5637